{"data":{"norad_id":53261,"intl_designator":"2022-086V","name":"STARLINK-4062","alt_names":[],"object_type":"PAYLOAD","status":"ACTIVE","operator":null,"country":"US","launch_date":"2022-07-24","launch_site_code":"AFETR","launch_vehicle":null,"mission":null,"orbit_class":"UNKNOWN","rcs_meters":null,"size_class":null,"mass_kg":null,"dimensions":null,"purposes":["comms"],"wikipedia_slug":null,"has_3d_model":false,"image_url":null,"decayed_at":null,"tle_current":{"epoch":"2026-05-25T04:14:03.690240Z","epoch_age_seconds":69981,"freshness":"FRESH","line1":"1 53261U 22086V   26145.17643160 -.00000239  00000+0  30637-5 0  9999","line2":"2 53261  53.2142 210.7590 0001021  85.6514 274.4595 15.08834441212619","mean_motion":15.08834441,"eccentricity":0.0001021,"inclination_deg":53.2142,"raan_deg":210.759,"arg_perigee_deg":85.6514,"mean_anomaly_deg":274.4595,"bstar":3.0637e-6,"rev_number":21261,"period_min":95.437906298429,"perigee_km":539.05406333279,"apogee_km":540.46669797793,"semimajor_km":6917.8973806554,"source":"CELESTRAK","updated_at":"2026-05-25T13:38:17.363917Z"}}}